Year,Month,Day,Hour,Minute,Value (Times are PST for temperature in C)
2018,08,08,00,00,20.60
2018,08,08,00,01,20.50
2018,08,08,00,02,20.50
2018,08,08,00,03,20.50
2018,08,08,00,04,20.50
2018,08,08,00,05,20.40
2018,08,08,00,06,20.40
2018,08,08,00,07,20.40
2018,08,08,00,08,20.40
2018,08,08,00,09,20.40
2018,08,08,00,10,20.40
2018,08,08,00,11,20.40
2018,08,08,00,12,20.40
2018,08,08,00,13,20.40
2018,08,08,00,14,20.30
2018,08,08,00,15,20.30
2018,08,08,00,16,20.30
2018,08,08,00,17,20.30
2018,08,08,00,18,20.20
2018,08,08,00,19,20.20
2018,08,08,00,20,20.20
2018,08,08,00,21,20.20
2018,08,08,00,22,20.20
2018,08,08,00,23,20.20
2018,08,08,00,24,20.20
2018,08,08,00,25,20.10
2018,08,08,00,26,20.10
2018,08,08,00,27,20.10
2018,08,08,00,28,20.10
2018,08,08,00,29,20.00
2018,08,08,00,30,19.90
2018,08,08,00,31,19.90
2018,08,08,00,32,19.90
2018,08,08,00,33,19.90
2018,08,08,00,34,19.90
2018,08,08,00,35,19.90
2018,08,08,00,36,19.80
2018,08,08,00,37,19.80
2018,08,08,00,38,19.80
2018,08,08,00,39,19.80
2018,08,08,00,40,19.80
2018,08,08,00,41,19.80
2018,08,08,00,42,19.80
2018,08,08,00,43,19.80
2018,08,08,00,44,19.80
2018,08,08,00,45,19.80
2018,08,08,00,46,19.80
2018,08,08,00,47,19.80
2018,08,08,00,48,19.80
2018,08,08,00,49,19.80
2018,08,08,00,50,19.80
2018,08,08,00,51,19.80
2018,08,08,00,52,19.80
2018,08,08,00,53,19.80
2018,08,08,00,54,19.80
2018,08,08,00,55,19.70
2018,08,08,00,56,19.70
2018,08,08,00,57,19.70
2018,08,08,00,58,19.70
2018,08,08,00,59,19.70
2018,08,08,01,00,19.70
2018,08,08,01,01,19.60
2018,08,08,01,02,19.60
2018,08,08,01,03,19.60
2018,08,08,01,04,19.60
2018,08,08,01,05,19.50
2018,08,08,01,06,19.50
2018,08,08,01,07,19.50
2018,08,08,01,08,19.50
2018,08,08,01,09,19.40
2018,08,08,01,10,19.40
2018,08,08,01,11,19.40
2018,08,08,01,12,19.40
2018,08,08,01,13,19.40
2018,08,08,01,14,19.30
2018,08,08,01,15,19.30
2018,08,08,01,16,19.30
2018,08,08,01,17,19.30
2018,08,08,01,18,19.30
2018,08,08,01,19,19.20
2018,08,08,01,20,19.20
2018,08,08,01,21,19.20
2018,08,08,01,22,19.20
2018,08,08,01,23,19.20
2018,08,08,01,24,19.20
2018,08,08,01,25,19.20
2018,08,08,01,26,19.20
2018,08,08,01,27,19.10
2018,08,08,01,28,19.10
2018,08,08,01,29,19.10
2018,08,08,01,30,19.10
2018,08,08,01,31,19.10
2018,08,08,01,32,19.10
2018,08,08,01,33,19.10
2018,08,08,01,34,19.10
2018,08,08,01,35,19.10
2018,08,08,01,36,19.10
2018,08,08,01,37,19.10
2018,08,08,01,38,19.00
2018,08,08,01,39,18.90
2018,08,08,01,40,18.90
2018,08,08,01,41,18.90
2018,08,08,01,42,18.90
2018,08,08,01,43,18.90
2018,08,08,01,44,18.90
2018,08,08,01,45,18.90
2018,08,08,01,46,18.90
2018,08,08,01,47,18.90
2018,08,08,01,48,18.90
2018,08,08,01,49,18.90
2018,08,08,01,50,18.90
2018,08,08,01,51,18.90
2018,08,08,01,52,18.90
2018,08,08,01,53,18.90
2018,08,08,01,54,18.90
2018,08,08,01,55,18.90
2018,08,08,01,56,18.90
2018,08,08,01,57,18.90
2018,08,08,01,58,18.90
2018,08,08,01,59,18.80
2018,08,08,02,00,18.80
2018,08,08,02,01,18.80
2018,08,08,02,02,18.80
2018,08,08,02,03,18.80
2018,08,08,02,04,18.80
2018,08,08,02,05,18.80
2018,08,08,02,06,18.80
2018,08,08,02,07,18.80
2018,08,08,02,08,18.80
2018,08,08,02,09,18.80
2018,08,08,02,10,18.80
2018,08,08,02,11,18.80
2018,08,08,02,12,18.80
2018,08,08,02,13,18.80
2018,08,08,02,14,18.80
2018,08,08,02,15,18.80
2018,08,08,02,16,18.80
2018,08,08,02,17,18.80
2018,08,08,02,18,18.80
2018,08,08,02,19,18.80
2018,08,08,02,20,18.70
2018,08,08,02,21,18.70
2018,08,08,02,22,18.70
2018,08,08,02,23,18.70
2018,08,08,02,24,18.70
2018,08,08,02,25,18.70
2018,08,08,02,26,18.70
2018,08,08,02,27,18.70
2018,08,08,02,28,18.70
2018,08,08,02,29,18.60
2018,08,08,02,30,18.60
2018,08,08,02,31,18.60
2018,08,08,02,32,18.60
2018,08,08,02,33,18.60
2018,08,08,02,34,18.60
2018,08,08,02,35,18.60
2018,08,08,02,36,18.60
2018,08,08,02,37,18.60
2018,08,08,02,38,18.60
2018,08,08,02,39,18.50
2018,08,08,02,40,18.50
2018,08,08,02,41,18.50
2018,08,08,02,42,18.50
2018,08,08,02,43,18.50
2018,08,08,02,44,18.50
2018,08,08,02,45,18.40
2018,08,08,02,46,18.40
2018,08,08,02,47,18.40
2018,08,08,02,48,18.40
2018,08,08,02,49,18.40
2018,08,08,02,50,18.40
2018,08,08,02,51,18.40
2018,08,08,02,52,18.40
2018,08,08,02,53,18.40
2018,08,08,02,54,18.40
2018,08,08,02,55,18.30
2018,08,08,02,56,18.30
2018,08,08,02,57,18.30
2018,08,08,02,58,18.30
2018,08,08,02,59,18.30
2018,08,08,03,00,18.20
2018,08,08,03,01,18.20
2018,08,08,03,02,18.20
2018,08,08,03,03,18.20
2018,08,08,03,04,18.20
2018,08,08,03,05,18.20
2018,08,08,03,06,18.20
2018,08,08,03,07,18.20
2018,08,08,03,08,18.20
2018,08,08,03,09,18.20
2018,08,08,03,10,18.20
2018,08,08,03,11,18.20
2018,08,08,03,12,18.20
2018,08,08,03,13,18.20
2018,08,08,03,14,18.20
2018,08,08,03,15,18.20
2018,08,08,03,16,18.20
2018,08,08,03,17,18.20
2018,08,08,03,18,18.20
2018,08,08,03,19,18.20
2018,08,08,03,20,18.20
2018,08,08,03,21,18.10
2018,08,08,03,22,18.10
2018,08,08,03,23,18.10
2018,08,08,03,24,18.10
2018,08,08,03,25,18.10
2018,08,08,03,26,18.10
2018,08,08,03,27,18.10
2018,08,08,03,28,18.10
2018,08,08,03,29,18.10
2018,08,08,03,30,18.10
2018,08,08,03,31,18.10
2018,08,08,03,32,18.10
2018,08,08,03,33,18.10
2018,08,08,03,34,18.10
2018,08,08,03,35,18.10
2018,08,08,03,36,18.00
2018,08,08,03,37,17.90
2018,08,08,03,38,17.90
2018,08,08,03,39,17.90
2018,08,08,03,40,17.90
2018,08,08,03,41,17.90
2018,08,08,03,42,17.90
2018,08,08,03,43,17.90
2018,08,08,03,44,17.90
2018,08,08,03,45,17.90
2018,08,08,03,46,17.90
2018,08,08,03,47,17.90
2018,08,08,03,48,17.90
2018,08,08,03,49,17.90
2018,08,08,03,50,17.90
2018,08,08,03,51,17.90
2018,08,08,03,52,17.90
2018,08,08,03,53,17.90
2018,08,08,03,54,17.90
2018,08,08,03,55,17.90
2018,08,08,03,56,17.90
2018,08,08,03,57,17.90
2018,08,08,03,58,17.90
2018,08,08,03,59,17.90
2018,08,08,04,00,17.90
2018,08,08,04,01,17.90
2018,08,08,04,02,17.90
2018,08,08,04,03,17.90
2018,08,08,04,04,17.90
2018,08,08,04,05,17.80
2018,08,08,04,06,17.80
2018,08,08,04,07,17.80
2018,08,08,04,08,17.70
2018,08,08,04,09,17.70
2018,08,08,04,10,17.70
2018,08,08,04,11,17.70
2018,08,08,04,12,17.70
2018,08,08,04,13,17.70
2018,08,08,04,14,17.70
2018,08,08,04,15,17.70
2018,08,08,04,16,17.70
2018,08,08,04,17,17.70
2018,08,08,04,18,17.70
2018,08,08,04,19,17.60
2018,08,08,04,20,17.60
2018,08,08,04,21,17.60
2018,08,08,04,22,17.60
2018,08,08,04,23,17.60
2018,08,08,04,24,17.60
2018,08,08,04,25,17.60
2018,08,08,04,26,17.60
2018,08,08,04,27,17.60
2018,08,08,04,28,17.60
2018,08,08,04,29,17.60
2018,08,08,04,30,17.50
2018,08,08,04,31,17.50
2018,08,08,04,32,17.50
2018,08,08,04,33,17.50
2018,08,08,04,34,17.40
2018,08,08,04,35,17.40
2018,08,08,04,36,17.40
2018,08,08,04,37,17.40
2018,08,08,04,38,17.30
2018,08,08,04,39,17.30
2018,08,08,04,40,17.30
2018,08,08,04,41,17.30
2018,08,08,04,42,17.30
2018,08,08,04,43,17.30
2018,08,08,04,44,17.30
2018,08,08,04,45,17.30
2018,08,08,04,46,17.30
2018,08,08,04,47,17.30
2018,08,08,04,48,17.30
2018,08,08,04,49,17.30
2018,08,08,04,50,17.30
2018,08,08,04,51,17.30
2018,08,08,04,52,17.30
2018,08,08,04,53,17.30
2018,08,08,04,54,17.30
2018,08,08,04,55,17.30
2018,08,08,04,56,17.30
2018,08,08,04,57,17.20
2018,08,08,04,58,17.20
2018,08,08,04,59,17.20
2018,08,08,05,00,17.20
2018,08,08,05,01,17.20
2018,08,08,05,02,17.20
2018,08,08,05,03,17.20
2018,08,08,05,04,17.10
2018,08,08,05,05,17.10
2018,08,08,05,06,17.10
2018,08,08,05,07,17.10
2018,08,08,05,08,17.10
2018,08,08,05,09,17.10
2018,08,08,05,10,17.10
2018,08,08,05,11,17.10
2018,08,08,05,12,17.10
2018,08,08,05,13,17.20
2018,08,08,05,14,17.20
2018,08,08,05,15,17.20
2018,08,08,05,16,17.20
2018,08,08,05,17,17.20
2018,08,08,05,18,17.20
2018,08,08,05,19,17.20
2018,08,08,05,20,17.20
2018,08,08,05,21,17.20
2018,08,08,05,22,17.20
2018,08,08,05,23,17.10
2018,08,08,05,24,17.10
2018,08,08,05,25,17.10
2018,08,08,05,26,17.00
2018,08,08,05,27,17.00
2018,08,08,05,28,17.00
2018,08,08,05,29,17.00
2018,08,08,05,30,17.00
2018,08,08,05,31,16.90
2018,08,08,05,32,16.90
2018,08,08,05,33,16.90
2018,08,08,05,34,16.90
2018,08,08,05,35,16.90
2018,08,08,05,36,16.90
2018,08,08,05,37,16.80
2018,08,08,05,38,16.80
2018,08,08,05,39,16.80
2018,08,08,05,40,16.80
2018,08,08,05,41,16.90
2018,08,08,05,42,16.90
2018,08,08,05,43,16.90
2018,08,08,05,44,16.90
2018,08,08,05,45,16.90
2018,08,08,05,46,16.90
2018,08,08,05,47,16.90
2018,08,08,05,48,16.90
2018,08,08,05,49,16.90
2018,08,08,05,50,16.90
2018,08,08,05,51,16.90
2018,08,08,05,52,16.90
2018,08,08,05,53,16.90
2018,08,08,05,54,16.80
2018,08,08,05,55,16.80
2018,08,08,05,56,16.80
2018,08,08,05,57,16.80
2018,08,08,05,58,16.80
2018,08,08,05,59,16.80
2018,08,08,06,00,16.80
2018,08,08,06,01,16.80
2018,08,08,06,02,16.80
2018,08,08,06,03,16.80
2018,08,08,06,04,16.70
2018,08,08,06,05,16.70
2018,08,08,06,06,16.70
2018,08,08,06,07,16.70
2018,08,08,06,08,16.70
2018,08,08,06,09,16.70
2018,08,08,06,10,16.70
2018,08,08,06,11,16.70
2018,08,08,06,12,16.70
2018,08,08,06,13,16.70
2018,08,08,06,14,16.70
2018,08,08,06,15,16.70
2018,08,08,06,16,16.70
2018,08,08,06,17,16.70
2018,08,08,06,18,16.70
2018,08,08,06,19,16.70
2018,08,08,06,20,16.80
2018,08,08,06,21,16.80
2018,08,08,06,22,16.80
2018,08,08,06,23,16.80
2018,08,08,06,24,16.80
2018,08,08,06,25,16.80
2018,08,08,06,26,16.80
2018,08,08,06,27,16.80
2018,08,08,06,28,16.80
2018,08,08,06,29,16.80
2018,08,08,06,30,16.80
2018,08,08,06,31,16.80
2018,08,08,06,32,16.80
2018,08,08,06,33,16.80
2018,08,08,06,34,16.80
2018,08,08,06,35,16.80
2018,08,08,06,36,16.80
2018,08,08,06,37,16.80
2018,08,08,06,38,16.80
2018,08,08,06,39,16.90
2018,08,08,06,40,16.90
2018,08,08,06,41,16.90
2018,08,08,06,42,16.90
2018,08,08,06,43,16.90
2018,08,08,06,44,16.90
2018,08,08,06,45,16.90
2018,08,08,06,46,16.90
2018,08,08,06,47,16.90
2018,08,08,06,48,16.90
2018,08,08,06,49,16.90
2018,08,08,06,50,16.90
2018,08,08,06,51,16.90
2018,08,08,06,52,16.90
2018,08,08,06,53,16.90
2018,08,08,06,54,16.90
2018,08,08,06,55,16.90
2018,08,08,06,56,16.90
2018,08,08,06,57,16.90
2018,08,08,06,58,17.00
2018,08,08,06,59,17.00
2018,08,08,07,00,17.00
2018,08,08,07,01,17.00
2018,08,08,07,02,17.10
2018,08,08,07,03,17.10
2018,08,08,07,04,17.10
2018,08,08,07,05,17.20
2018,08,08,07,06,17.20
2018,08,08,07,07,17.30
2018,08,08,07,08,17.30
2018,08,08,07,09,17.40
2018,08,08,07,10,17.50
2018,08,08,07,11,17.50
2018,08,08,07,12,17.60
2018,08,08,07,13,17.70
2018,08,08,07,14,17.70
2018,08,08,07,15,17.80
2018,08,08,07,16,17.80
2018,08,08,07,17,17.90
2018,08,08,07,18,17.90
2018,08,08,07,19,17.90
2018,08,08,07,20,17.90
2018,08,08,07,21,18.00
2018,08,08,07,22,18.10
2018,08,08,07,23,18.20
2018,08,08,07,24,18.20
2018,08,08,07,25,18.20
2018,08,08,07,26,18.30
2018,08,08,07,27,18.30
2018,08,08,07,28,18.40
2018,08,08,07,29,18.50
2018,08,08,07,30,18.50
2018,08,08,07,31,18.60
2018,08,08,07,32,18.60
2018,08,08,07,33,18.70
2018,08,08,07,34,18.70
2018,08,08,07,35,18.80
2018,08,08,07,36,18.90
2018,08,08,07,37,18.90
2018,08,08,07,38,18.90
2018,08,08,07,39,19.00
2018,08,08,07,40,19.10
2018,08,08,07,41,19.10
2018,08,08,07,42,19.20
2018,08,08,07,43,19.30
2018,08,08,07,44,19.30
2018,08,08,07,45,19.40
2018,08,08,07,46,19.40
2018,08,08,07,47,19.50
2018,08,08,07,48,19.60
2018,08,08,07,49,19.70
2018,08,08,07,50,19.70
2018,08,08,07,51,19.80
2018,08,08,07,52,19.90
2018,08,08,07,53,19.90
2018,08,08,07,54,20.00
2018,08,08,07,55,20.10
2018,08,08,07,56,20.10
2018,08,08,07,57,20.10
2018,08,08,07,58,20.20
2018,08,08,07,59,20.20
2018,08,08,08,00,20.20
2018,08,08,08,01,20.20
2018,08,08,08,02,20.30
2018,08,08,08,03,20.40
2018,08,08,08,04,20.40
2018,08,08,08,05,20.50
2018,08,08,08,06,20.50
2018,08,08,08,07,20.60
2018,08,08,08,08,20.60
2018,08,08,08,09,20.70
2018,08,08,08,10,20.80
2018,08,08,08,11,20.90
2018,08,08,08,12,20.90
2018,08,08,08,13,21.00
2018,08,08,08,14,21.00
2018,08,08,08,15,21.10
2018,08,08,08,16,21.20
2018,08,08,08,17,21.30
2018,08,08,08,18,21.30
2018,08,08,08,19,21.30
2018,08,08,08,20,21.50
2018,08,08,08,21,21.60
2018,08,08,08,22,21.60
2018,08,08,08,23,21.70
2018,08,08,08,24,21.80
2018,08,08,08,25,21.90
2018,08,08,08,26,22.00
2018,08,08,08,27,22.10
2018,08,08,08,28,22.20
2018,08,08,08,29,22.20
2018,08,08,08,30,22.30
2018,08,08,08,31,22.30
2018,08,08,08,32,22.40
2018,08,08,08,33,22.50
2018,08,08,08,34,22.50
2018,08,08,08,35,22.60
2018,08,08,08,36,22.60
2018,08,08,08,37,22.70
2018,08,08,08,38,22.80
2018,08,08,08,39,22.90
2018,08,08,08,40,22.90
2018,08,08,08,41,23.00
2018,08,08,08,42,23.10
2018,08,08,08,43,23.20
2018,08,08,08,44,23.30
2018,08,08,08,45,23.40
2018,08,08,08,46,23.50
2018,08,08,08,47,23.60
2018,08,08,08,48,23.60
2018,08,08,08,49,23.60
2018,08,08,08,50,23.70
2018,08,08,08,51,23.70
2018,08,08,08,52,23.80
2018,08,08,08,53,23.80
2018,08,08,08,54,23.80
2018,08,08,08,55,23.90
2018,08,08,08,56,24.00
2018,08,08,08,57,24.10
2018,08,08,08,58,24.20
2018,08,08,08,59,24.30
2018,08,08,09,00,24.30
2018,08,08,09,01,24.40
2018,08,08,09,02,24.50
2018,08,08,09,03,24.50
2018,08,08,09,04,24.60
2018,08,08,09,05,24.60
2018,08,08,09,06,24.60
2018,08,08,09,07,24.60
2018,08,08,09,08,24.60
2018,08,08,09,09,24.60
2018,08,08,09,10,24.60
2018,08,08,09,11,24.50
2018,08,08,09,12,24.50
2018,08,08,09,13,24.40
2018,08,08,09,14,24.30
2018,08,08,09,15,24.30
2018,08,08,09,16,24.30
2018,08,08,09,17,24.30
2018,08,08,09,18,24.30
2018,08,08,09,19,24.30
2018,08,08,09,20,24.20
2018,08,08,09,21,24.20
2018,08,08,09,22,24.20
2018,08,08,09,23,24.20
2018,08,08,09,24,24.30
2018,08,08,09,25,24.30
2018,08,08,09,26,24.40
2018,08,08,09,27,24.40
2018,08,08,09,28,24.40
2018,08,08,09,29,24.50
2018,08,08,09,30,24.50
2018,08,08,09,31,24.60
2018,08,08,09,32,24.60
2018,08,08,09,33,24.60
2018,08,08,09,34,24.60
2018,08,08,09,35,24.60
2018,08,08,09,36,24.70
2018,08,08,09,37,24.70
2018,08,08,09,38,24.70
2018,08,08,09,39,24.70
2018,08,08,09,40,24.70
2018,08,08,09,41,24.80
2018,08,08,09,42,24.80
2018,08,08,09,43,24.70
2018,08,08,09,44,24.60
2018,08,08,09,45,24.50
2018,08,08,09,46,24.50
2018,08,08,09,47,24.50
2018,08,08,09,48,24.50
2018,08,08,09,49,24.50
2018,08,08,09,50,24.50
2018,08,08,09,51,24.50
2018,08,08,09,52,24.60
2018,08,08,09,53,24.70
2018,08,08,09,54,24.80
2018,08,08,09,55,24.80
2018,08,08,09,56,24.90
2018,08,08,09,57,25.00
2018,08,08,09,58,25.10
2018,08,08,09,59,25.10
2018,08,08,10,00,25.20
2018,08,08,10,01,25.10
2018,08,08,10,02,25.00
2018,08,08,10,03,25.00
2018,08,08,10,04,25.10
2018,08,08,10,05,25.20
2018,08,08,10,06,25.30
2018,08,08,10,07,25.30
2018,08,08,10,08,25.30
2018,08,08,10,09,25.40
2018,08,08,10,10,25.40
2018,08,08,10,11,25.30
2018,08,08,10,12,25.10
2018,08,08,10,13,25.10
2018,08,08,10,14,25.10
2018,08,08,10,15,25.10
2018,08,08,10,16,25.00
2018,08,08,10,17,24.90
2018,08,08,10,18,24.90
2018,08,08,10,19,25.00
2018,08,08,10,20,25.20
2018,08,08,10,21,25.20
2018,08,08,10,22,25.30
2018,08,08,10,23,25.30
2018,08,08,10,24,25.20
2018,08,08,10,25,25.10
2018,08,08,10,26,25.10
2018,08,08,10,27,25.10
2018,08,08,10,28,25.00
2018,08,08,10,29,25.00
2018,08,08,10,30,25.00
2018,08,08,10,31,25.00
2018,08,08,10,32,25.00
2018,08,08,10,33,25.10
2018,08,08,10,34,25.30
2018,08,08,10,35,25.40
2018,08,08,10,36,25.60
2018,08,08,10,37,25.60
2018,08,08,10,38,25.60
2018,08,08,10,39,25.60
2018,08,08,10,40,25.40
2018,08,08,10,41,25.40
2018,08,08,10,42,25.40
2018,08,08,10,43,25.40
2018,08,08,10,44,25.60
2018,08,08,10,45,25.70
2018,08,08,10,46,25.80
2018,08,08,10,47,25.90
2018,08,08,10,48,26.10
2018,08,08,10,49,26.20
2018,08,08,10,50,26.30
2018,08,08,10,51,26.50
2018,08,08,10,52,26.60
2018,08,08,10,53,26.60
2018,08,08,10,54,26.60
2018,08,08,10,55,26.60
2018,08,08,10,56,26.70
2018,08,08,10,57,26.80
2018,08,08,10,58,26.80
2018,08,08,10,59,26.70
2018,08,08,11,00,26.70
2018,08,08,11,01,26.70
2018,08,08,11,02,26.60
2018,08,08,11,03,26.60
2018,08,08,11,04,26.60
2018,08,08,11,05,26.50
2018,08,08,11,06,26.40
2018,08,08,11,07,26.30
2018,08,08,11,08,26.20
2018,08,08,11,09,26.20
2018,08,08,11,10,26.20
2018,08,08,11,11,26.30
2018,08,08,11,12,26.20
2018,08,08,11,13,26.30
2018,08,08,11,14,26.20
2018,08,08,11,15,26.10
2018,08,08,11,16,26.10
2018,08,08,11,17,26.20
2018,08,08,11,18,26.30
2018,08,08,11,19,26.40
2018,08,08,11,20,26.60
2018,08,08,11,21,26.80
2018,08,08,11,22,26.90
2018,08,08,11,23,27.10
2018,08,08,11,24,27.30
2018,08,08,11,25,27.20
2018,08,08,11,26,27.20
2018,08,08,11,27,27.30
2018,08,08,11,28,27.30
2018,08,08,11,29,27.30
2018,08,08,11,30,27.20
2018,08,08,11,31,27.00
2018,08,08,11,32,26.80
2018,08,08,11,33,26.80
2018,08,08,11,34,26.90
2018,08,08,11,35,26.90
2018,08,08,11,36,26.90
2018,08,08,11,37,26.90
2018,08,08,11,38,26.90
2018,08,08,11,39,26.90
2018,08,08,11,40,27.00
2018,08,08,11,41,27.10
2018,08,08,11,42,26.90
2018,08,08,11,43,26.80
2018,08,08,11,44,26.70
2018,08,08,11,45,26.70
2018,08,08,11,46,26.80
2018,08,08,11,47,26.90
2018,08,08,11,48,27.00
2018,08,08,11,49,27.00
2018,08,08,11,50,26.70
2018,08,08,11,51,26.60
2018,08,08,11,52,26.70
2018,08,08,11,53,26.80
2018,08,08,11,54,26.80
2018,08,08,11,55,26.90
2018,08,08,11,56,27.00
2018,08,08,11,57,27.20
2018,08,08,11,58,27.30
2018,08,08,11,59,27.40
2018,08,08,12,00,27.40
2018,08,08,12,01,27.40
2018,08,08,12,02,27.50
2018,08,08,12,03,27.60
2018,08,08,12,04,27.60
2018,08,08,12,05,27.60
2018,08,08,12,06,27.70
2018,08,08,12,07,27.80
2018,08,08,12,08,27.90
2018,08,08,12,09,28.00
2018,08,08,12,10,28.00
2018,08,08,12,11,28.00
2018,08,08,12,12,28.00
2018,08,08,12,13,28.00
2018,08,08,12,14,28.00
2018,08,08,12,15,27.90
2018,08,08,12,16,27.80
2018,08,08,12,17,27.80
2018,08,08,12,18,27.80
2018,08,08,12,19,27.80
2018,08,08,12,20,27.80
2018,08,08,12,21,27.70
2018,08,08,12,22,27.70
2018,08,08,12,23,27.60
2018,08,08,12,24,27.30
2018,08,08,12,25,27.20
2018,08,08,12,26,27.10
2018,08,08,12,27,27.00
2018,08,08,12,28,27.00
2018,08,08,12,29,27.10
2018,08,08,12,30,27.20
2018,08,08,12,31,27.20
2018,08,08,12,32,27.20
2018,08,08,12,33,27.30
2018,08,08,12,34,27.40
2018,08,08,12,35,27.30
2018,08,08,12,36,27.30
2018,08,08,12,37,27.30
2018,08,08,12,38,27.30
2018,08,08,12,39,27.30
2018,08,08,12,40,27.30
2018,08,08,12,41,27.30
2018,08,08,12,42,27.40
2018,08,08,12,43,27.60
2018,08,08,12,44,27.70
2018,08,08,12,45,27.90
2018,08,08,12,46,28.00
2018,08,08,12,47,28.10
2018,08,08,12,48,28.30
2018,08,08,12,49,28.40
2018,08,08,12,50,28.30
2018,08,08,12,51,28.20
2018,08,08,12,52,28.20
2018,08,08,12,53,28.20
2018,08,08,12,54,28.30
2018,08,08,12,55,28.30
2018,08,08,12,56,28.40
2018,08,08,12,57,28.40
2018,08,08,12,58,28.40
2018,08,08,12,59,28.40
2018,08,08,13,00,28.40
2018,08,08,13,01,28.40
2018,08,08,13,02,28.20
2018,08,08,13,03,28.20
2018,08,08,13,04,28.10
2018,08,08,13,05,28.10
2018,08,08,13,06,28.20
2018,08,08,13,07,28.30
2018,08,08,13,08,28.50
2018,08,08,13,09,28.50
2018,08,08,13,10,28.30
2018,08,08,13,11,28.10
2018,08,08,13,12,28.10
2018,08,08,13,13,28.00
2018,08,08,13,14,28.10
2018,08,08,13,15,28.10
2018,08,08,13,16,28.10
2018,08,08,13,17,28.10
2018,08,08,13,18,28.10
2018,08,08,13,19,28.00
2018,08,08,13,20,28.10
2018,08,08,13,21,28.10
2018,08,08,13,22,28.20
2018,08,08,13,23,28.40
2018,08,08,13,24,28.50
2018,08,08,13,25,28.70
2018,08,08,13,26,28.90
2018,08,08,13,27,29.00
2018,08,08,13,28,28.90
2018,08,08,13,29,28.70
2018,08,08,13,30,28.60
2018,08,08,13,31,28.50
2018,08,08,13,32,28.40
2018,08,08,13,33,28.30
2018,08,08,13,34,28.20
2018,08,08,13,35,28.30
2018,08,08,13,36,28.40
2018,08,08,13,37,28.50
2018,08,08,13,38,28.70
2018,08,08,13,39,28.90
2018,08,08,13,40,29.00
2018,08,08,13,41,29.20
2018,08,08,13,42,29.40
2018,08,08,13,43,29.50
2018,08,08,13,44,29.60
2018,08,08,13,45,29.60
2018,08,08,13,46,29.60
2018,08,08,13,47,29.30
2018,08,08,13,48,29.10
2018,08,08,13,49,29.20
2018,08,08,13,50,29.20
2018,08,08,13,51,29.40
2018,08,08,13,52,29.50
2018,08,08,13,53,29.50
2018,08,08,13,54,29.50
2018,08,08,13,55,29.60
2018,08,08,13,56,29.70
2018,08,08,13,57,29.80
2018,08,08,13,58,29.80
2018,08,08,13,59,29.70
2018,08,08,14,00,29.60
2018,08,08,14,01,29.70
2018,08,08,14,02,29.80
2018,08,08,14,03,29.70
2018,08,08,14,04,29.70
2018,08,08,14,05,29.60
2018,08,08,14,06,29.40
2018,08,08,14,07,29.40
2018,08,08,14,08,29.40
2018,08,08,14,09,29.50
2018,08,08,14,10,29.60
2018,08,08,14,11,29.70
2018,08,08,14,12,29.90
2018,08,08,14,13,30.00
2018,08,08,14,14,30.10
2018,08,08,14,15,30.30
2018,08,08,14,16,30.30
2018,08,08,14,17,30.30
2018,08,08,14,18,30.40
2018,08,08,14,19,30.50
2018,08,08,14,20,30.70
2018,08,08,14,21,30.50
2018,08,08,14,22,30.40
2018,08,08,14,23,30.50
2018,08,08,14,24,30.30
2018,08,08,14,25,30.30
2018,08,08,14,26,30.20
2018,08,08,14,27,30.30
2018,08,08,14,28,30.40
2018,08,08,14,29,30.70
2018,08,08,14,30,30.80
2018,08,08,14,31,30.90
2018,08,08,14,32,30.80
2018,08,08,14,33,30.90
2018,08,08,14,34,31.10
2018,08,08,14,35,31.10
2018,08,08,14,36,31.10
2018,08,08,14,37,31.10
2018,08,08,14,38,31.20
2018,08,08,14,39,31.10
2018,08,08,14,40,31.10
2018,08,08,14,41,31.20
2018,08,08,14,42,31.10
2018,08,08,14,43,31.10
2018,08,08,14,44,31.10
2018,08,08,14,45,31.10
2018,08,08,14,46,31.00
2018,08,08,14,47,31.00
2018,08,08,14,48,31.00
2018,08,08,14,49,30.90
2018,08,08,14,50,30.80
2018,08,08,14,51,30.90
2018,08,08,14,52,31.00
2018,08,08,14,53,31.00
2018,08,08,14,54,31.00
2018,08,08,14,55,31.10
2018,08,08,14,56,31.20
2018,08,08,14,57,31.30
2018,08,08,14,58,31.30
2018,08,08,14,59,31.50
2018,08,08,15,00,31.50
2018,08,08,15,01,31.40
2018,08,08,15,02,31.40
2018,08,08,15,03,31.30
2018,08,08,15,04,31.20
2018,08,08,15,05,31.20
2018,08,08,15,06,31.30
2018,08,08,15,07,31.50
2018,08,08,15,08,31.60
2018,08,08,15,09,31.80
2018,08,08,15,10,32.00
2018,08,08,15,11,32.10
2018,08,08,15,12,32.10
2018,08,08,15,13,32.10
2018,08,08,15,14,32.00
2018,08,08,15,15,31.70
2018,08,08,15,16,31.40
2018,08,08,15,17,31.30
2018,08,08,15,18,31.30
2018,08,08,15,19,31.20
2018,08,08,15,20,31.40
2018,08,08,15,21,31.40
2018,08,08,15,22,31.40
2018,08,08,15,23,31.30
2018,08,08,15,24,31.30
2018,08,08,15,25,31.40
2018,08,08,15,26,31.50
2018,08,08,15,27,31.60
2018,08,08,15,28,31.70
2018,08,08,15,29,31.80
2018,08,08,15,30,31.90
2018,08,08,15,31,32.00
2018,08,08,15,32,32.20
2018,08,08,15,33,32.30
2018,08,08,15,34,32.30
2018,08,08,15,35,32.30
2018,08,08,15,36,32.30
2018,08,08,15,37,32.30
2018,08,08,15,38,32.20
2018,08,08,15,39,32.10
2018,08,08,15,40,32.10
2018,08,08,15,41,32.10
2018,08,08,15,42,32.30
2018,08,08,15,43,32.40
2018,08,08,15,44,32.40
2018,08,08,15,45,32.40
2018,08,08,15,46,32.50
2018,08,08,15,47,32.50
2018,08,08,15,48,32.50
2018,08,08,15,49,32.40
2018,08,08,15,50,32.50
2018,08,08,15,51,32.50
2018,08,08,15,52,32.60
2018,08,08,15,53,32.60
2018,08,08,15,54,32.70
2018,08,08,15,55,32.80
2018,08,08,15,56,32.90
2018,08,08,15,57,32.90
2018,08,08,15,58,32.90
2018,08,08,15,59,32.80
2018,08,08,16,00,32.60
2018,08,08,16,01,32.60
2018,08,08,16,02,32.60
2018,08,08,16,03,32.40
2018,08,08,16,04,32.40
2018,08,08,16,05,32.50
2018,08,08,16,06,32.60
2018,08,08,16,07,32.70
2018,08,08,16,08,32.80
2018,08,08,16,09,33.00
2018,08,08,16,10,33.00
2018,08,08,16,11,32.80
2018,08,08,16,12,32.60
2018,08,08,16,13,32.50
2018,08,08,16,14,32.40
2018,08,08,16,15,32.40
2018,08,08,16,16,32.40
2018,08,08,16,17,32.60
2018,08,08,16,18,32.70
2018,08,08,16,19,32.90
2018,08,08,16,20,32.90
2018,08,08,16,21,33.00
2018,08,08,16,22,33.00
2018,08,08,16,23,33.00
2018,08,08,16,24,33.00
2018,08,08,16,25,33.10
2018,08,08,16,26,33.20
2018,08,08,16,27,33.30
2018,08,08,16,28,33.10
2018,08,08,16,29,33.00
2018,08,08,16,30,33.00
2018,08,08,16,31,33.10
2018,08,08,16,32,33.00
2018,08,08,16,33,32.90
2018,08,08,16,34,32.70
2018,08,08,16,35,32.40
2018,08,08,16,36,32.30
2018,08,08,16,37,32.30
2018,08,08,16,38,32.30
2018,08,08,16,39,32.30
2018,08,08,16,40,32.50
2018,08,08,16,41,32.60
2018,08,08,16,42,32.80
2018,08,08,16,43,33.00
2018,08,08,16,44,33.10
2018,08,08,16,45,33.20
2018,08,08,16,46,33.30
2018,08,08,16,47,33.40
2018,08,08,16,48,33.40
2018,08,08,16,49,33.20
2018,08,08,16,50,33.30
2018,08,08,16,51,33.40
2018,08,08,16,52,33.40
2018,08,08,16,53,33.20
2018,08,08,16,54,33.00
2018,08,08,16,55,33.00
2018,08,08,16,56,33.00
2018,08,08,16,57,33.00
2018,08,08,16,58,33.00
2018,08,08,16,59,33.00
2018,08,08,17,00,33.00
2018,08,08,17,01,33.00
2018,08,08,17,02,33.00
2018,08,08,17,03,33.10
2018,08,08,17,04,33.00
2018,08,08,17,05,33.10
2018,08,08,17,06,33.10
2018,08,08,17,07,33.10
2018,08,08,17,08,33.10
2018,08,08,17,09,33.20
2018,08,08,17,10,33.10
2018,08,08,17,11,33.00
2018,08,08,17,12,32.90
2018,08,08,17,13,32.90
2018,08,08,17,14,32.90
2018,08,08,17,15,32.90
2018,08,08,17,16,32.80
2018,08,08,17,17,32.80
2018,08,08,17,18,32.80
2018,08,08,17,19,32.70